STARLINK-11161, 60124

Orbit data source: Space-Track

STARLINK-11161, 60124 is a payload satellite owned by SpaceX/Seattle (US) in LEO that was launched on Mon, 24 Jun 2024 UTC via an FALCON 9 launch vehicle from the Air Force Western Test Range (AFWTR). Payload-class satellites include a variety of spacecraft equipped with specific instruments for various scientific and technological missions. These include communications satellites like Starlink; space stations such as the ISS; scientific satellites like the Hubble; Earth observation satellites from companies like Planet Labs, Umbra, and HawkEye 360; GPS; miniature CubeSats for education and research; and military/defense satellites.

Loading next visibility...
Identifier
60124, 2024-118M
Orbit
LEO
Last TLE update
4 hours ago
Origin
Manufacturer
SpaceX/Seattle
Mission
Operational Commercial Communications
Bus & Motor
STARLINK V2M, Unknown motor
Mass
730 kg wet, ~700 kg dry
Launch date (UTC)
2024-06-24 (1 year ago)
Launch vehicle
FALCON 9
Launch site
Air Force Western Test Range (AFWTR)
Object type
Payload
Rocket body
Debris
Shape & HBR
Box + 2 Pan, 29 m
Radar Cross Section
33.884 m², Large (>1 m²)

Expand to show TLE details & history

TLE from 4 hours ago
0 STARLINK-11161
1 60124U 24118M   25189.17006148 -.00001227  00000-0 -52834-5 0  9992
2 60124  53.1583 347.0275 0000427  79.6781 280.4285 15.69702715 60625
Epoch: 2025-07-08T04:04Z
TLE epoch observation values (Epoch: 2025-07-08T04:04:53.311Z)
Latitude
-0.00004°
Longitude
-0.56355°
Altitude
360.61 km
Speed
7.694 km/s
True Right ascension
23h 08m 06s
True Declination
0° 00' 00"
Sunlit
Object was in full shadow at epoch
Visualization orbit readout
Latitude
-33.21616°
Longitude
-30.66636°
Altitude
370.311 km
Speed
7.687 km/s
Apparent Right ascension
23h 52m 24s
Apparent Declination
-82° 09' 30"
Sunlit
Object is in full shadow
Visualization observer readout
Local Sidereal Time
20:34:43
Azimuth
172.769° S
Elevation
-34.583°
Doppler factor
1
Orbital elements
Apogee altitude
360.296 km
Perigee altitude
359.721 km
Semi-major axis
6,738.146 km
Eccentricity
0.00004
Inclination
53.1583°
RAAN
347.0275°
Arg. of periapsis
79.6781°
True anomaly
Unknown
Mean anomaly
280.4285°
Eccentric anomaly
Unknown
Mean motion
3.92403 °/min
Orbital period
91.74 mins
BSTAR
-0.0000052834
Loading maneuver chart data...
Loading SW <> Apogee altitude chart data...
Loading historical data...
Loading historical data...
Loading historical data...
Loading historical data...
Loading historical data...
Loading historical data...
Loading historical data...

STARLINK-11161 Visibility forecast

Observer location: undefined°, undefined°

Span
Click to sort rows by Start time (UTC) header in descending order
Start Az.
Max El. time (UTC)
Max El. Az.
Max El.
End time (UTC)
End Az.
5 mins2025-07-08 13:25:59.447Z229.002° WSW2025-07-08 13:28:59.447Z50.09° ENE40.738°2025-07-08 13:30:59.447Z50.014° ENE
4 mins2025-07-08 19:51:59.447Z332.369° NNW2025-07-08 19:52:59.447Z14.117° NNE37.777°2025-07-08 19:55:59.447Z115.501° SE
|